Year,Month,Day,Hour,Minute,Value (Times are PST for temperature in C)
2023,04,25,00,00,6.90
2023,04,25,00,01,6.90
2023,04,25,00,02,6.90
2023,04,25,00,03,6.90
2023,04,25,00,04,6.90
2023,04,25,00,05,6.90
2023,04,25,00,06,6.90
2023,04,25,00,07,6.90
2023,04,25,00,08,6.90
2023,04,25,00,09,6.90
2023,04,25,00,10,6.90
2023,04,25,00,11,6.80
2023,04,25,00,12,6.80
2023,04,25,00,13,6.80
2023,04,25,00,14,6.80
2023,04,25,00,15,6.80
2023,04,25,00,16,6.80
2023,04,25,00,17,6.80
2023,04,25,00,18,6.80
2023,04,25,00,19,6.80
2023,04,25,00,20,6.80
2023,04,25,00,21,6.80
2023,04,25,00,22,6.80
2023,04,25,00,23,6.80
2023,04,25,00,24,6.80
2023,04,25,00,25,6.80
2023,04,25,00,26,6.80
2023,04,25,00,27,6.80
2023,04,25,00,28,6.80
2023,04,25,00,29,6.80
2023,04,25,00,30,6.80
2023,04,25,00,31,6.80
2023,04,25,00,32,6.70
2023,04,25,00,33,6.70
2023,04,25,00,34,6.70
2023,04,25,00,35,6.70
2023,04,25,00,36,6.70
2023,04,25,00,37,6.70
2023,04,25,00,38,6.70
2023,04,25,00,39,6.70
2023,04,25,00,40,6.70
2023,04,25,00,41,6.70
2023,04,25,00,42,6.70
2023,04,25,00,43,6.70
2023,04,25,00,44,6.70
2023,04,25,00,45,6.70
2023,04,25,00,46,6.60
2023,04,25,00,47,6.60
2023,04,25,00,48,6.60
2023,04,25,00,49,6.60
2023,04,25,00,50,6.60
2023,04,25,00,51,6.60
2023,04,25,00,52,6.60
2023,04,25,00,53,6.60
2023,04,25,00,54,6.60
2023,04,25,00,55,6.60
2023,04,25,00,56,6.60
2023,04,25,00,57,6.60
2023,04,25,00,58,6.60
2023,04,25,00,59,6.60
2023,04,25,01,00,6.60
2023,04,25,01,01,6.60
2023,04,25,01,02,6.60
2023,04,25,01,03,6.60
2023,04,25,01,04,6.60
2023,04,25,01,05,6.60
2023,04,25,01,06,6.60
2023,04,25,01,07,6.60
2023,04,25,01,08,6.60
2023,04,25,01,09,6.60
2023,04,25,01,10,6.60
2023,04,25,01,11,6.60
2023,04,25,01,12,6.60
2023,04,25,01,13,6.60
2023,04,25,01,14,6.60
2023,04,25,01,15,6.60
2023,04,25,01,16,6.60
2023,04,25,01,17,6.60
2023,04,25,01,18,6.60
2023,04,25,01,19,6.60
2023,04,25,01,20,6.60
2023,04,25,01,21,6.60
2023,04,25,01,22,6.60
2023,04,25,01,23,6.40
2023,04,25,01,24,6.40
2023,04,25,01,25,6.50
2023,04,25,01,26,6.60
2023,04,25,01,27,6.60
2023,04,25,01,28,6.60
2023,04,25,01,29,6.50
2023,04,25,01,30,6.60
2023,04,25,01,31,6.60
2023,04,25,01,32,6.60
2023,04,25,01,33,6.60
2023,04,25,01,34,6.60
2023,04,25,01,35,6.60
2023,04,25,01,36,6.60
2023,04,25,01,37,6.60
2023,04,25,01,38,6.50
2023,04,25,01,39,6.40
2023,04,25,01,40,6.40
2023,04,25,01,41,6.40
2023,04,25,01,42,6.40
2023,04,25,01,43,6.40
2023,04,25,01,44,6.40
2023,04,25,01,45,6.40
2023,04,25,01,46,6.40
2023,04,25,01,47,6.40
2023,04,25,01,48,6.40
2023,04,25,01,49,6.30
2023,04,25,01,50,6.30
2023,04,25,01,51,6.30
2023,04,25,01,52,6.30
2023,04,25,01,53,6.30
2023,04,25,01,54,6.30
2023,04,25,01,55,6.30
2023,04,25,01,56,6.30
2023,04,25,01,57,6.30
2023,04,25,01,58,6.30
2023,04,25,01,59,6.20
2023,04,25,02,00,6.20
2023,04,25,02,01,6.20
2023,04,25,02,02,6.20
2023,04,25,02,03,6.20
2023,04,25,02,04,6.20
2023,04,25,02,05,6.20
2023,04,25,02,06,6.30
2023,04,25,02,07,6.30
2023,04,25,02,08,6.30
2023,04,25,02,09,6.30
2023,04,25,02,10,6.30
2023,04,25,02,11,6.30
2023,04,25,02,12,6.30
2023,04,25,02,13,6.30
2023,04,25,02,14,6.30
2023,04,25,02,15,6.30
2023,04,25,02,16,6.30
2023,04,25,02,17,6.30
2023,04,25,02,18,6.30
2023,04,25,02,19,6.30
2023,04,25,02,20,6.30
2023,04,25,02,21,6.30
2023,04,25,02,22,6.30
2023,04,25,02,23,6.30
2023,04,25,02,24,6.30
2023,04,25,02,25,6.30
2023,04,25,02,26,6.30
2023,04,25,02,27,6.30
2023,04,25,02,28,6.30
2023,04,25,02,29,6.30
2023,04,25,02,30,6.30
2023,04,25,02,31,6.30
2023,04,25,02,32,6.30
2023,04,25,02,33,6.30
2023,04,25,02,34,6.30
2023,04,25,02,35,6.40
2023,04,25,02,36,6.40
2023,04,25,02,37,6.40
2023,04,25,02,38,6.40
2023,04,25,02,39,6.40
2023,04,25,02,40,6.40
2023,04,25,02,41,6.40
2023,04,25,02,42,6.40
2023,04,25,02,43,6.30
2023,04,25,02,44,6.30
2023,04,25,02,45,6.30
2023,04,25,02,46,6.30
2023,04,25,02,47,6.30
2023,04,25,02,48,6.30
2023,04,25,02,49,6.30
2023,04,25,02,50,6.30
2023,04,25,02,51,6.30
2023,04,25,02,52,6.30
2023,04,25,02,53,6.30
2023,04,25,02,54,6.30
2023,04,25,02,55,6.30
2023,04,25,02,56,6.30
2023,04,25,02,57,6.30
2023,04,25,02,58,6.30
2023,04,25,02,59,6.30
2023,04,25,03,00,6.30
2023,04,25,03,01,6.30
2023,04,25,03,02,6.30
2023,04,25,03,03,6.30
2023,04,25,03,04,6.30
2023,04,25,03,05,6.30
2023,04,25,03,06,6.30
2023,04,25,03,07,6.30
2023,04,25,03,08,6.40
2023,04,25,03,09,6.30
2023,04,25,03,10,6.30
2023,04,25,03,11,6.30
2023,04,25,03,12,6.30
2023,04,25,03,13,6.30
2023,04,25,03,14,6.30
2023,04,25,03,15,6.30
2023,04,25,03,16,6.30
2023,04,25,03,17,6.30
2023,04,25,03,18,6.30
2023,04,25,03,19,6.30
2023,04,25,03,20,6.20
2023,04,25,03,21,6.20
2023,04,25,03,22,6.20
2023,04,25,03,23,6.20
2023,04,25,03,24,6.20
2023,04,25,03,25,6.20
2023,04,25,03,26,6.20
2023,04,25,03,27,6.20
2023,04,25,03,28,6.20
2023,04,25,03,29,6.20
2023,04,25,03,30,6.20
2023,04,25,03,31,6.20
2023,04,25,03,32,6.30
2023,04,25,03,33,6.30
2023,04,25,03,34,6.30
2023,04,25,03,35,6.30
2023,04,25,03,36,6.30
2023,04,25,03,37,6.30
2023,04,25,03,38,6.30
2023,04,25,03,39,6.30
2023,04,25,03,40,6.30
2023,04,25,03,41,6.30
2023,04,25,03,42,6.30
2023,04,25,03,43,6.30
2023,04,25,03,44,6.30
2023,04,25,03,45,6.30
2023,04,25,03,46,6.30
2023,04,25,03,47,6.30
2023,04,25,03,48,6.30
2023,04,25,03,49,6.30
2023,04,25,03,50,6.30
2023,04,25,03,51,6.30
2023,04,25,03,52,6.30
2023,04,25,03,53,6.30
2023,04,25,03,54,6.30
2023,04,25,03,55,6.30
2023,04,25,03,56,6.30
2023,04,25,03,57,6.20
2023,04,25,03,58,6.20
2023,04,25,03,59,6.20
2023,04,25,04,00,6.20
2023,04,25,04,01,6.20
2023,04,25,04,02,6.20
2023,04,25,04,03,6.20
2023,04,25,04,04,6.20
2023,04,25,04,05,6.20
2023,04,25,04,06,6.20
2023,04,25,04,07,6.20
2023,04,25,04,08,6.20
2023,04,25,04,09,6.20
2023,04,25,04,10,6.20
2023,04,25,04,11,6.20
2023,04,25,04,12,6.20
2023,04,25,04,13,6.20
2023,04,25,04,14,6.20
2023,04,25,04,15,6.20
2023,04,25,04,16,6.20
2023,04,25,04,17,6.20
2023,04,25,04,18,6.20
2023,04,25,04,19,6.20
2023,04,25,04,20,6.20
2023,04,25,04,21,6.20
2023,04,25,04,22,6.20
2023,04,25,04,23,6.20
2023,04,25,04,24,6.20
2023,04,25,04,25,6.20
2023,04,25,04,26,6.20
2023,04,25,04,27,6.20
2023,04,25,04,28,6.20
2023,04,25,04,29,6.20
2023,04,25,04,30,6.20
2023,04,25,04,31,6.20
2023,04,25,04,32,6.20
2023,04,25,04,33,6.20
2023,04,25,04,34,6.20
2023,04,25,04,35,6.20
2023,04,25,04,36,6.20
2023,04,25,04,37,6.20
2023,04,25,04,38,6.20
2023,04,25,04,39,6.10
2023,04,25,04,40,6.10
2023,04,25,04,41,6.10
2023,04,25,04,42,6.10
2023,04,25,04,43,6.10
2023,04,25,04,44,6.10
2023,04,25,04,45,6.10
2023,04,25,04,46,6.00
2023,04,25,04,47,6.00
2023,04,25,04,48,6.00
2023,04,25,04,49,6.00
2023,04,25,04,50,6.00
2023,04,25,04,51,6.00
2023,04,25,04,52,5.90
2023,04,25,04,53,5.90
2023,04,25,04,54,5.90
2023,04,25,04,55,5.90
2023,04,25,04,56,5.90
2023,04,25,04,57,5.90
2023,04,25,04,58,5.80
2023,04,25,04,59,5.80
2023,04,25,05,00,5.80
2023,04,25,05,01,5.80
2023,04,25,05,02,5.80
2023,04,25,05,03,5.80
2023,04,25,05,04,5.80
2023,04,25,05,05,5.80
2023,04,25,05,06,5.80
2023,04,25,05,07,5.80
2023,04,25,05,08,5.90
2023,04,25,05,09,5.90
2023,04,25,05,10,5.90
2023,04,25,05,11,5.90
2023,04,25,05,12,5.90
2023,04,25,05,13,5.90
2023,04,25,05,14,5.90
2023,04,25,05,15,5.90
2023,04,25,05,16,5.90
2023,04,25,05,17,5.80
2023,04,25,05,18,5.80
2023,04,25,05,19,5.80
2023,04,25,05,20,5.80
2023,04,25,05,21,5.80
2023,04,25,05,22,5.80
2023,04,25,05,23,5.80
2023,04,25,05,24,5.80
2023,04,25,05,25,5.80
2023,04,25,05,26,5.80
2023,04,25,05,27,5.80
2023,04,25,05,28,5.80
2023,04,25,05,29,5.80
2023,04,25,05,30,5.80
2023,04,25,05,31,5.80
2023,04,25,05,32,5.80
2023,04,25,05,33,5.80
2023,04,25,05,34,5.80
2023,04,25,05,35,5.80
2023,04,25,05,36,5.80
2023,04,25,05,37,5.80
2023,04,25,05,38,5.80
2023,04,25,05,39,5.90
2023,04,25,05,40,5.90
2023,04,25,05,41,5.90
2023,04,25,05,42,5.90
2023,04,25,05,43,5.90
2023,04,25,05,44,5.90
2023,04,25,05,45,5.90
2023,04,25,05,46,5.90
2023,04,25,05,47,5.90
2023,04,25,05,48,5.90
2023,04,25,05,49,6.00
2023,04,25,05,50,6.00
2023,04,25,05,51,6.00
2023,04,25,05,52,6.00
2023,04,25,05,53,6.00
2023,04,25,05,54,6.00
2023,04,25,05,55,6.00
2023,04,25,05,56,6.10
2023,04,25,05,57,6.10
2023,04,25,05,58,6.10
2023,04,25,05,59,6.10
2023,04,25,06,00,6.10
2023,04,25,06,01,6.10
2023,04,25,06,02,6.20
2023,04,25,06,03,6.20
2023,04,25,06,04,6.20
2023,04,25,06,05,6.20
2023,04,25,06,06,6.20
2023,04,25,06,07,6.20
2023,04,25,06,08,6.20
2023,04,25,06,09,6.20
2023,04,25,06,10,6.20
2023,04,25,06,11,6.20
2023,04,25,06,12,6.20
2023,04,25,06,13,6.20
2023,04,25,06,14,6.20
2023,04,25,06,15,6.20
2023,04,25,06,16,6.20
2023,04,25,06,17,6.20
2023,04,25,06,18,6.20
2023,04,25,06,19,6.20
2023,04,25,06,20,6.20
2023,04,25,06,21,6.20
2023,04,25,06,22,6.20
2023,04,25,06,23,6.20
2023,04,25,06,24,6.20
2023,04,25,06,25,6.20
2023,04,25,06,26,6.20
2023,04,25,06,27,6.20
2023,04,25,06,28,6.20
2023,04,25,06,29,6.20
2023,04,25,06,30,6.20
2023,04,25,06,31,6.30
2023,04,25,06,32,6.30
2023,04,25,06,33,6.30
2023,04,25,06,34,6.30
2023,04,25,06,35,6.30
2023,04,25,06,36,6.30
2023,04,25,06,37,6.30
2023,04,25,06,38,6.30
2023,04,25,06,39,6.40
2023,04,25,06,40,6.40
2023,04,25,06,41,6.40
2023,04,25,06,42,6.40
2023,04,25,06,43,6.40
2023,04,25,06,44,6.40
2023,04,25,06,45,6.40
2023,04,25,06,46,6.40
2023,04,25,06,47,6.50
2023,04,25,06,48,6.60
2023,04,25,06,49,6.60
2023,04,25,06,50,6.60
2023,04,25,06,51,6.60
2023,04,25,06,52,6.60
2023,04,25,06,53,6.60
2023,04,25,06,54,6.60
2023,04,25,06,55,6.70
2023,04,25,06,56,6.70
2023,04,25,06,57,6.70
2023,04,25,06,58,6.70
2023,04,25,06,59,6.70
2023,04,25,07,00,6.80
2023,04,25,07,01,6.80
2023,04,25,07,02,6.80
2023,04,25,07,03,6.80
2023,04,25,07,04,6.80
2023,04,25,07,05,6.80
2023,04,25,07,06,6.80
2023,04,25,07,07,6.80
2023,04,25,07,08,6.80
2023,04,25,07,09,6.80
2023,04,25,07,10,6.80
2023,04,25,07,11,6.80
2023,04,25,07,12,6.80
2023,04,25,07,13,6.80
2023,04,25,07,14,6.90
2023,04,25,07,15,6.90
2023,04,25,07,16,6.90
2023,04,25,07,17,6.90
2023,04,25,07,18,6.90
2023,04,25,07,19,6.90
2023,04,25,07,20,6.90
2023,04,25,07,21,6.90
2023,04,25,07,22,6.90
2023,04,25,07,23,6.90
2023,04,25,07,24,6.90
2023,04,25,07,25,6.90
2023,04,25,07,26,6.90
2023,04,25,07,27,6.90
2023,04,25,07,28,6.90
2023,04,25,07,29,7.00
2023,04,25,07,30,7.00
2023,04,25,07,31,7.00
2023,04,25,07,32,7.00
2023,04,25,07,33,7.00
2023,04,25,07,34,7.00
2023,04,25,07,35,7.00
2023,04,25,07,36,7.10
2023,04,25,07,37,7.10
2023,04,25,07,38,7.10
2023,04,25,07,39,7.20
2023,04,25,07,40,7.20
2023,04,25,07,41,7.20
2023,04,25,07,42,7.20
2023,04,25,07,43,7.20
2023,04,25,07,44,7.20
2023,04,25,07,45,7.20
2023,04,25,07,46,7.20
2023,04,25,07,47,7.30
2023,04,25,07,48,7.30
2023,04,25,07,49,7.30
2023,04,25,07,50,7.30
2023,04,25,07,51,7.30
2023,04,25,07,52,7.30
2023,04,25,07,53,7.30
2023,04,25,07,54,7.30
2023,04,25,07,55,7.30
2023,04,25,07,56,7.40
2023,04,25,07,57,7.40
2023,04,25,07,58,7.40
2023,04,25,07,59,7.50
2023,04,25,08,00,7.50
2023,04,25,08,01,7.60
2023,04,25,08,02,7.60
2023,04,25,08,03,7.60
2023,04,25,08,04,7.70
2023,04,25,08,05,7.70
2023,04,25,08,06,7.70
2023,04,25,08,07,7.70
2023,04,25,08,08,7.70
2023,04,25,08,09,7.70
2023,04,25,08,10,7.80
2023,04,25,08,11,7.80
2023,04,25,08,12,7.80
2023,04,25,08,13,7.80
2023,04,25,08,14,7.80
2023,04,25,08,15,7.80
2023,04,25,08,16,7.80
2023,04,25,08,17,7.80
2023,04,25,08,18,7.80
2023,04,25,08,19,7.80
2023,04,25,08,20,7.80
2023,04,25,08,21,7.80
2023,04,25,08,22,7.90
2023,04,25,08,23,7.90
2023,04,25,08,24,7.90
2023,04,25,08,25,7.90
2023,04,25,08,26,8.00
2023,04,25,08,27,8.00
2023,04,25,08,28,8.00
2023,04,25,08,29,8.00
2023,04,25,08,30,8.10
2023,04,25,08,31,8.10
2023,04,25,08,32,8.10
2023,04,25,08,33,8.10
2023,04,25,08,34,8.20
2023,04,25,08,35,8.20
2023,04,25,08,36,8.20
2023,04,25,08,37,8.20
2023,04,25,08,38,8.20
2023,04,25,08,39,8.20
2023,04,25,08,40,8.20
2023,04,25,08,41,8.30
2023,04,25,08,42,8.30
2023,04,25,08,43,8.30
2023,04,25,08,44,8.30
2023,04,25,08,45,8.40
2023,04,25,08,46,8.40
2023,04,25,08,47,8.40
2023,04,25,08,48,8.40
2023,04,25,08,49,8.40
2023,04,25,08,50,8.50
2023,04,25,08,51,8.50
2023,04,25,08,52,8.50
2023,04,25,08,53,8.50
2023,04,25,08,54,8.50
2023,04,25,08,55,8.50
2023,04,25,08,56,8.50
2023,04,25,08,57,8.50
2023,04,25,08,58,8.50
2023,04,25,08,59,8.50
2023,04,25,09,00,8.50
2023,04,25,09,01,8.60
2023,04,25,09,02,8.60
2023,04,25,09,03,8.60
2023,04,25,09,04,8.70
2023,04,25,09,05,8.70
2023,04,25,09,06,8.80
2023,04,25,09,07,8.80
2023,04,25,09,08,8.90
2023,04,25,09,09,8.90
2023,04,25,09,10,8.90
2023,04,25,09,11,9.00
2023,04,25,09,12,9.00
2023,04,25,09,13,9.00
2023,04,25,09,14,9.10
2023,04,25,09,15,9.10
2023,04,25,09,16,9.20
2023,04,25,09,17,9.20
2023,04,25,09,18,9.20
2023,04,25,09,19,9.20
2023,04,25,09,20,9.30
2023,04,25,09,21,9.30
2023,04,25,09,22,9.30
2023,04,25,09,23,9.40
2023,04,25,09,24,9.40
2023,04,25,09,25,9.50
2023,04,25,09,26,9.50
2023,04,25,09,27,9.60
2023,04,25,09,28,9.60
2023,04,25,09,29,9.60
2023,04,25,09,30,9.60
2023,04,25,09,31,9.60
2023,04,25,09,32,9.60
2023,04,25,09,33,9.60
2023,04,25,09,34,9.70
2023,04,25,09,35,9.80
2023,04,25,09,36,10.00
2023,04,25,09,37,10.10
2023,04,25,09,38,10.20
2023,04,25,09,39,10.30
2023,04,25,09,40,10.40
2023,04,25,09,41,10.40
2023,04,25,09,42,10.40
2023,04,25,09,43,10.40
2023,04,25,09,44,10.50
2023,04,25,09,45,10.60
2023,04,25,09,46,10.70
2023,04,25,09,47,10.80
2023,04,25,09,48,10.90
2023,04,25,09,49,11.00
2023,04,25,09,50,11.10
2023,04,25,09,51,11.10
2023,04,25,09,52,11.10
2023,04,25,09,53,11.10
2023,04,25,09,54,11.10
2023,04,25,09,55,11.20
2023,04,25,09,56,11.20
2023,04,25,09,57,11.30
2023,04,25,09,58,11.40
2023,04,25,09,59,11.50
2023,04,25,10,00,11.60
2023,04,25,10,01,11.60
2023,04,25,10,02,11.60
2023,04,25,10,03,11.60
2023,04,25,10,04,11.60
2023,04,25,10,05,11.70
2023,04,25,10,06,11.70
2023,04,25,10,07,11.70
2023,04,25,10,08,11.80
2023,04,25,10,09,11.80
2023,04,25,10,10,11.90
2023,04,25,10,11,11.90
2023,04,25,10,12,12.00
2023,04,25,10,13,12.10
2023,04,25,10,14,12.10
2023,04,25,10,15,12.00
2023,04,25,10,16,11.90
2023,04,25,10,17,11.80
2023,04,25,10,18,11.70
2023,04,25,10,19,11.70
2023,04,25,10,20,11.70
2023,04,25,10,21,11.80
2023,04,25,10,22,11.70
2023,04,25,10,23,11.70
2023,04,25,10,24,11.70
2023,04,25,10,25,11.70
2023,04,25,10,26,11.70
2023,04,25,10,27,11.70
2023,04,25,10,28,11.80
2023,04,25,10,29,11.80
2023,04,25,10,30,11.70
2023,04,25,10,31,11.80
2023,04,25,10,32,11.80
2023,04,25,10,33,11.90
2023,04,25,10,34,12.00
2023,04,25,10,35,12.10
2023,04,25,10,36,12.10
2023,04,25,10,37,12.20
2023,04,25,10,38,12.30
2023,04,25,10,39,12.30
2023,04,25,10,40,12.20
2023,04,25,10,41,12.20
2023,04,25,10,42,12.20
2023,04,25,10,43,12.30
2023,04,25,10,44,12.30
2023,04,25,10,45,12.30
2023,04,25,10,46,12.20
2023,04,25,10,47,12.20
2023,04,25,10,48,12.20
2023,04,25,10,49,12.20
2023,04,25,10,50,12.30
2023,04,25,10,51,12.30
2023,04,25,10,52,12.30
2023,04,25,10,53,12.30
2023,04,25,10,54,12.30
2023,04,25,10,55,12.40
2023,04,25,10,56,12.30
2023,04,25,10,57,12.30
2023,04,25,10,58,12.30
2023,04,25,10,59,12.30
2023,04,25,11,00,12.30
2023,04,25,11,01,12.30
2023,04,25,11,02,12.30
2023,04,25,11,03,12.30
2023,04,25,11,04,12.30
2023,04,25,11,05,12.30
2023,04,25,11,06,12.30
2023,04,25,11,07,12.30
2023,04,25,11,08,12.40
2023,04,25,11,09,12.30
2023,04,25,11,10,12.40
2023,04,25,11,11,12.40
2023,04,25,11,12,12.30
2023,04,25,11,13,12.30
2023,04,25,11,14,12.20
2023,04,25,11,15,12.10
2023,04,25,11,16,12.10
2023,04,25,11,17,12.00
2023,04,25,11,18,11.90
2023,04,25,11,19,11.90
2023,04,25,11,20,11.80
2023,04,25,11,21,11.70
2023,04,25,11,22,11.70
2023,04,25,11,23,11.70
2023,04,25,11,24,11.70
2023,04,25,11,25,11.80
2023,04,25,11,26,11.80
2023,04,25,11,27,11.80
2023,04,25,11,28,11.90
2023,04,25,11,29,12.00
2023,04,25,11,30,12.00
2023,04,25,11,31,12.00
2023,04,25,11,32,12.00
2023,04,25,11,33,12.10
2023,04,25,11,34,12.10
2023,04,25,11,35,12.20
2023,04,25,11,36,12.30
2023,04,25,11,37,12.30
2023,04,25,11,38,12.40
2023,04,25,11,39,12.50
2023,04,25,11,40,12.60
2023,04,25,11,41,12.70
2023,04,25,11,42,12.80
2023,04,25,11,43,13.00
2023,04,25,11,44,13.10
2023,04,25,11,45,13.10
2023,04,25,11,46,13.10
2023,04,25,11,47,13.10
2023,04,25,11,48,13.10
2023,04,25,11,49,13.10
2023,04,25,11,50,13.10
2023,04,25,11,51,13.10
2023,04,25,11,52,13.20
2023,04,25,11,53,13.10
2023,04,25,11,54,13.00
2023,04,25,11,55,13.00
2023,04,25,11,56,13.10
2023,04,25,11,57,13.20
2023,04,25,11,58,13.30
2023,04,25,11,59,13.40
2023,04,25,12,00,13.30
2023,04,25,12,01,13.30
2023,04,25,12,02,13.30
2023,04,25,12,03,13.30
2023,04,25,12,04,13.20
2023,04,25,12,05,13.10
2023,04,25,12,06,13.20
2023,04,25,12,07,13.10
2023,04,25,12,08,13.00
2023,04,25,12,09,13.10
2023,04,25,12,10,12.90
2023,04,25,12,11,12.90
2023,04,25,12,12,13.00
2023,04,25,12,13,13.10
2023,04,25,12,14,13.20
2023,04,25,12,15,13.10
2023,04,25,12,16,13.20
2023,04,25,12,17,13.20
2023,04,25,12,18,13.30
2023,04,25,12,19,13.40
2023,04,25,12,20,13.40
2023,04,25,12,21,13.30
2023,04,25,12,22,13.30
2023,04,25,12,23,13.30
2023,04,25,12,24,13.30
2023,04,25,12,25,13.40
2023,04,25,12,26,13.60
2023,04,25,12,27,13.60
2023,04,25,12,28,13.50
2023,04,25,12,29,13.30
2023,04,25,12,30,13.20
2023,04,25,12,31,13.00
2023,04,25,12,32,12.80
2023,04,25,12,33,12.70
2023,04,25,12,34,12.70
2023,04,25,12,35,12.50
2023,04,25,12,36,12.30
2023,04,25,12,37,12.40
2023,04,25,12,38,12.50
2023,04,25,12,39,12.50
2023,04,25,12,40,12.50
2023,04,25,12,41,12.60
2023,04,25,12,42,12.60
2023,04,25,12,43,12.60
2023,04,25,12,44,12.70
2023,04,25,12,45,12.80
2023,04,25,12,46,12.80
2023,04,25,12,47,12.80
2023,04,25,12,48,12.60
2023,04,25,12,49,12.50
2023,04,25,12,50,12.30
2023,04,25,12,51,12.30
2023,04,25,12,52,12.30
2023,04,25,12,53,12.30
2023,04,25,12,54,12.40
2023,04,25,12,55,12.50
2023,04,25,12,56,12.60
2023,04,25,12,57,12.70
2023,04,25,12,58,12.80
2023,04,25,12,59,12.80
2023,04,25,13,00,12.80
2023,04,25,13,01,12.80
2023,04,25,13,02,12.80
2023,04,25,13,03,12.70
2023,04,25,13,04,12.80
2023,04,25,13,05,12.80
2023,04,25,13,06,12.80
2023,04,25,13,07,12.80
2023,04,25,13,08,12.80
2023,04,25,13,09,12.80
2023,04,25,13,10,12.90
2023,04,25,13,11,13.00
2023,04,25,13,12,13.10
2023,04,25,13,13,13.20
2023,04,25,13,14,13.20
2023,04,25,13,15,13.30
2023,04,25,13,16,13.40
2023,04,25,13,17,13.30
2023,04,25,13,18,13.20
2023,04,25,13,19,13.00
2023,04,25,13,20,13.00
2023,04,25,13,21,13.10
2023,04,25,13,22,13.20
2023,04,25,13,23,13.30
2023,04,25,13,24,13.30
2023,04,25,13,25,13.30
2023,04,25,13,26,13.30
2023,04,25,13,27,13.10
2023,04,25,13,28,13.00
2023,04,25,13,29,12.90
2023,04,25,13,30,12.90
2023,04,25,13,31,12.90
2023,04,25,13,32,12.90
2023,04,25,13,33,12.80
2023,04,25,13,34,12.70
2023,04,25,13,35,12.70
2023,04,25,13,36,12.70
2023,04,25,13,37,12.60
2023,04,25,13,38,12.50
2023,04,25,13,39,12.50
2023,04,25,13,40,12.50
2023,04,25,13,41,12.60
2023,04,25,13,42,12.70
2023,04,25,13,43,12.90
2023,04,25,13,44,13.00
2023,04,25,13,45,13.10
2023,04,25,13,46,13.20
2023,04,25,13,47,13.30
2023,04,25,13,48,13.50
2023,04,25,13,49,13.60
2023,04,25,13,50,13.60
2023,04,25,13,51,13.60
2023,04,25,13,52,13.60
2023,04,25,13,53,13.70
2023,04,25,13,54,13.70
2023,04,25,13,55,13.70
2023,04,25,13,56,13.80
2023,04,25,13,57,14.00
2023,04,25,13,58,14.20
2023,04,25,13,59,14.40
2023,04,25,14,00,14.50
2023,04,25,14,01,14.40
2023,04,25,14,02,14.20
2023,04,25,14,03,14.10
2023,04,25,14,04,13.90
2023,04,25,14,05,13.80
2023,04,25,14,06,13.70
2023,04,25,14,07,13.70
2023,04,25,14,08,13.70
2023,04,25,14,09,13.70
2023,04,25,14,10,13.90
2023,04,25,14,11,13.90
2023,04,25,14,12,14.00
2023,04,25,14,13,14.10
2023,04,25,14,14,14.10
2023,04,25,14,15,14.10
2023,04,25,14,16,14.20
2023,04,25,14,17,14.20
2023,04,25,14,18,14.30
2023,04,25,14,19,14.40
2023,04,25,14,20,14.40
2023,04,25,14,21,14.50
2023,04,25,14,22,14.60
2023,04,25,14,23,14.60
2023,04,25,14,24,14.60
2023,04,25,14,25,14.60
2023,04,25,14,26,14.70
2023,04,25,14,27,14.60
2023,04,25,14,28,14.60
2023,04,25,14,29,14.60
2023,04,25,14,30,14.70
2023,04,25,14,31,14.70
2023,04,25,14,32,14.70
2023,04,25,14,33,14.70
2023,04,25,14,34,14.60
2023,04,25,14,35,14.60
2023,04,25,14,36,14.70
2023,04,25,14,37,14.80
2023,04,25,14,38,14.80
2023,04,25,14,39,14.80
2023,04,25,14,40,14.80
2023,04,25,14,41,14.80
2023,04,25,14,42,14.80
2023,04,25,14,43,14.80
2023,04,25,14,44,14.70
2023,04,25,14,45,14.60
2023,04,25,14,46,14.60
2023,04,25,14,47,14.70
2023,04,25,14,48,14.80
2023,04,25,14,49,14.90
2023,04,25,14,50,14.90
2023,04,25,14,51,14.90
2023,04,25,14,52,14.80
2023,04,25,14,53,14.80
2023,04,25,14,54,14.80
2023,04,25,14,55,14.80
2023,04,25,14,56,14.80
2023,04,25,14,57,14.80
2023,04,25,14,58,14.80
2023,04,25,14,59,14.60
2023,04,25,15,00,14.60
2023,04,25,15,01,14.50
2023,04,25,15,02,14.40
2023,04,25,15,03,14.30
2023,04,25,15,04,14.20
2023,04,25,15,05,14.20
2023,04,25,15,06,14.20
2023,04,25,15,07,14.20
2023,04,25,15,08,14.10
2023,04,25,15,09,14.00
2023,04,25,15,10,13.90
2023,04,25,15,11,13.90
2023,04,25,15,12,14.00
2023,04,25,15,13,14.00
2023,04,25,15,14,14.00
2023,04,25,15,15,14.10
2023,04,25,15,16,14.00
2023,04,25,15,17,13.90
2023,04,25,15,18,13.80
2023,04,25,15,19,13.70
2023,04,25,15,20,13.70
2023,04,25,15,21,13.70
2023,04,25,15,22,13.70
2023,04,25,15,23,13.60
2023,04,25,15,24,13.60
2023,04,25,15,25,13.60
2023,04,25,15,26,13.50
2023,04,25,15,27,13.50
2023,04,25,15,28,13.50
2023,04,25,15,29,13.50
2023,04,25,15,30,13.50
2023,04,25,15,31,13.30
2023,04,25,15,32,13.30
2023,04,25,15,33,13.30
2023,04,25,15,34,13.30
2023,04,25,15,35,13.40
2023,04,25,15,36,13.60
2023,04,25,15,37,13.60
2023,04,25,15,38,13.70
2023,04,25,15,39,13.70
2023,04,25,15,40,13.70
2023,04,25,15,41,13.70
2023,04,25,15,42,13.70
2023,04,25,15,43,13.70
2023,04,25,15,44,13.70
2023,04,25,15,45,13.60
2023,04,25,15,46,13.60
2023,04,25,15,47,13.60
2023,04,25,15,48,13.70
2023,04,25,15,49,13.70
2023,04,25,15,50,13.70
2023,04,25,15,51,13.80
2023,04,25,15,52,13.80
2023,04,25,15,53,13.80
2023,04,25,15,54,13.80
2023,04,25,15,55,13.80
2023,04,25,15,56,13.80
2023,04,25,15,57,13.80
2023,04,25,15,58,13.80
2023,04,25,15,59,13.80
2023,04,25,16,00,13.70
2023,04,25,16,01,13.70
2023,04,25,16,02,13.70
2023,04,25,16,03,13.70
2023,04,25,16,04,13.70
2023,04,25,16,05,13.60
2023,04,25,16,06,13.60
2023,04,25,16,07,13.50
2023,04,25,16,08,13.60
2023,04,25,16,09,13.60
2023,04,25,16,10,13.60
2023,04,25,16,11,13.50
2023,04,25,16,12,13.40
2023,04,25,16,13,13.30
2023,04,25,16,14,13.30
2023,04,25,16,15,13.30
2023,04,25,16,16,13.30
2023,04,25,16,17,13.30
2023,04,25,16,18,13.40
2023,04,25,16,19,13.40
2023,04,25,16,20,13.50
2023,04,25,16,21,13.50
2023,04,25,16,22,13.50
2023,04,25,16,23,13.60
2023,04,25,16,24,13.60
2023,04,25,16,25,13.70
2023,04,25,16,26,13.70
2023,04,25,16,27,13.70
2023,04,25,16,28,13.70
2023,04,25,16,29,13.70
2023,04,25,16,30,13.60
2023,04,25,16,31,13.60
2023,04,25,16,32,13.60
2023,04,25,16,33,13.70
2023,04,25,16,34,13.70
2023,04,25,16,35,13.80
2023,04,25,16,36,13.80
2023,04,25,16,37,13.70
2023,04,25,16,38,13.70
2023,04,25,16,39,13.70
2023,04,25,16,40,13.70
2023,04,25,16,41,13.60
2023,04,25,16,42,13.60
2023,04,25,16,43,13.60
2023,04,25,16,44,13.60
2023,04,25,16,45,13.60
2023,04,25,16,46,13.50
2023,04,25,16,47,13.50
2023,04,25,16,48,13.50
2023,04,25,16,49,13.50
2023,04,25,16,50,13.50
2023,04,25,16,51,13.40
2023,04,25,16,52,13.40
2023,04,25,16,53,13.50
2023,04,25,16,54,13.50
2023,04,25,16,55,13.50
2023,04,25,16,56,13.50
2023,04,25,16,57,13.50
2023,04,25,16,58,13.60
2023,04,25,16,59,13.60
2023,04,25,17,00,13.60
2023,04,25,17,01,13.60
2023,04,25,17,02,13.60
2023,04,25,17,03,13.60
2023,04,25,17,04,13.60
2023,04,25,17,05,13.60
2023,04,25,17,06,13.60
2023,04,25,17,07,13.60
2023,04,25,17,08,13.70
2023,04,25,17,09,13.70
2023,04,25,17,10,13.70
2023,04,25,17,11,13.80
2023,04,25,17,12,13.90
2023,04,25,17,13,13.90
2023,04,25,17,14,14.00
2023,04,25,17,15,14.00
2023,04,25,17,16,14.00
2023,04,25,17,17,14.10
2023,04,25,17,18,14.20
2023,04,25,17,19,14.20
2023,04,25,17,20,14.20
2023,04,25,17,21,14.20
2023,04,25,17,22,14.10
2023,04,25,17,23,14.10
2023,04,25,17,24,14.20
2023,04,25,17,25,14.20
2023,04,25,17,26,14.20
2023,04,25,17,27,14.30
2023,04,25,17,28,14.50
2023,04,25,17,29,14.50
2023,04,25,17,30,14.60
2023,04,25,17,31,14.70
2023,04,25,17,32,14.70
2023,04,25,17,33,14.80
2023,04,25,17,34,14.80
2023,04,25,17,35,14.80
2023,04,25,17,36,14.80
2023,04,25,17,37,14.80
2023,04,25,17,38,14.80
2023,04,25,17,39,14.80
2023,04,25,17,40,14.70
2023,04,25,17,41,14.70
2023,04,25,17,42,14.70
2023,04,25,17,43,14.70
2023,04,25,17,44,14.70